Weather History for Cairns Airport, Queensland

Change the Weather History Date:

Saturday, July 20, 2013

  Actual Average Record
Temperature  
Mean Temperature 72 °F -  
Max Temperature 79 °F 79 °F - ()
Min Temperature 66 °F 63 °F - ()
Cooling Degree Days 8    
Growing Degree Days 22 (Base 50)    
Moisture  
Dew Point 65 °F    
Average Humidity 74    
Maximum Humidity 94    
Minimum Humidity 50    
Precipitation  
Precipitation 0.01 in 0.03 in - ()
Sea Level Pressure  
Sea Level Pressure 29.94 in    
Wind  
Wind Speed 8 mph ()    
Max Wind Speed 12 mph    
Max Gust Speed -    
Visibility 6.8 miles    
Events Rain    
T = Trace of Precipitation, MM = Missing Value Source: Averaged Metar Reports

Daily Weather History Graph

Daily Weather History Graph

Search for Another Location

Airport:

Trip Planner

Search our weather history database for the weather conditions in past years. The results will help you decide how hot, cold, wet, or windy it might be!

Date:

Astronomy

Jul. 20, 2013 Rise Set
Actual Time 6:45 AM EST 6:00 PM EST
Civil Twilight 6:22 AM EST 6:24 PM EST
Nautical Twilight 5:56 AM EST 6:50 PM EST
Astronomical Twilight 5:30 AM EST 7:16 PM EST
Moon 3:24 PM EST (7/20) 3:45 AM EST (7/20)
Length of Visible Light 12h 01m
Length of Day
11h 15m
Waxing Gibbous, 89% of the Moon is Illuminated
Jul 20
Waxing Gibbous
Jul 23
Full
Jul 30
Last Quarter
Aug 7
New
Aug 14
First Quarter

Hourly Weather History & Observations

Time (EST) Temp. Dew Point Humidity Pressure Visibility Wind Dir Wind Speed Gust Speed Precip Events Conditions
12:00 AM 72 °F 66 °F 77% 29.99 in - SSE 8.1 mph - -   Overcast
12:00 AM 71.6 °F 66.2 °F 83% 29.98 in 5.6 mi SSE 8.1 mph - N/A Rain Light Rain Showers
12:30 AM 71.6 °F 66.2 °F 83% 29.98 in 6.2 mi South 9.2 mph - N/A   Overcast
1:00 AM 72 °F 65 °F 74% 29.99 in - South 9.2 mph - -  
1:00 AM 71.6 °F 66.2 °F 83% 29.98 in 6.2 mi South 9.2 mph - N/A   Mostly Cloudy
1:30 AM 69.8 °F 66.2 °F 88% 29.98 in 6.2 mi South 10.4 mph - N/A Rain Light Rain Showers
2:00 AM 71.6 °F 66.2 °F 83% 29.95 in 6.2 mi South 10.4 mph - N/A   Scattered Clouds
2:30 AM 69.8 °F 66.2 °F 88% 29.95 in 6.2 mi SE 9.2 mph - N/A   Partly Cloudy
3:00 AM 70 °F 65 °F 81% 29.95 in - SSE 5.8 mph - -  
3:00 AM 69.8 °F 66.2 °F 88% 29.95 in 6.2 mi SSE 5.8 mph - N/A   Scattered Clouds
3:30 AM 69.8 °F 66.2 °F 88% 29.95 in 6.2 mi SSE 8.1 mph - N/A   Scattered Clouds
4:00 AM 70 °F 65 °F 78% 29.95 in - South 5.8 mph - -  
4:00 AM 69.8 °F 64.4 °F 83% 29.95 in 6.2 mi South 5.8 mph - N/A   Partly Cloudy
4:30 AM 68.0 °F 66.2 °F 94% 29.95 in 6.2 mi West 1.2 mph - N/A   Scattered Clouds
5:00 AM 68.0 °F 64.4 °F 88% 29.92 in - SE 6.9 mph - N/A   Clear
5:30 AM 68.0 °F 66.2 °F 94% 29.95 in - SSE 8.1 mph - N/A   Clear
6:00 AM 68 °F 66 °F 90% 29.95 in 19 mi SSE 5.8 mph - -   Partly Cloudy
6:00 AM 68.0 °F 66.2 °F 94% 29.95 in 6.2 mi SSE 5.8 mph - N/A   Partly Cloudy
6:30 AM 68.0 °F 64.4 °F 88% 29.95 in 6.2 mi SSE 6.9 mph - N/A   Partly Cloudy
7:00 AM 67 °F 65 °F 93% 29.97 in - SE 11.5 mph - -  
7:00 AM 68.0 °F 66.2 °F 94% 29.95 in 6.2 mi SE 11.5 mph - N/A   Partly Cloudy
7:30 AM 68.0 °F 66.2 °F 94% 29.95 in 6.2 mi SE 9.2 mph - N/A   Partly Cloudy
8:00 AM 69.8 °F 66.2 °F 88% 29.98 in 6.2 mi SE 9.2 mph - N/A   Partly Cloudy
8:30 AM 71.6 °F 66.2 °F 83% 29.98 in 6.2 mi SE 9.2 mph - N/A   Partly Cloudy
9:00 AM 74 °F 65 °F 65% 29.99 in 19 mi South 9.2 mph - -   Partly Cloudy
9:00 AM 75.2 °F 64.4 °F 69% 29.98 in 6.2 mi South 9.2 mph - N/A   Partly Cloudy
9:30 AM 75.2 °F 64.4 °F 69% 29.98 in 6.2 mi South 9.2 mph - N/A   Partly Cloudy
10:00 AM 76 °F 65 °F 60% 29.99 in - SSE 8.1 mph - -  
10:00 AM 75.2 °F 64.4 °F 69% 29.98 in 6.2 mi SSE 8.1 mph - N/A   Partly Cloudy
10:30 AM 77.0 °F 64.4 °F 65% 29.98 in 6.2 mi SSE 8.1 mph - N/A   Partly Cloudy
11:00 AM 78.8 °F 64.4 °F 61% 29.95 in 6.2 mi SE 8.1 mph - N/A   Partly Cloudy
11:30 AM 78.8 °F 64.4 °F 61% 29.95 in 6.2 mi ESE 6.9 mph - N/A   Partly Cloudy
12:00 PM 79 °F 64 °F 51% 29.95 in 25 mi ENE 6.9 mph - -   Partly Cloudy
12:00 PM 78.8 °F 64.4 °F 61% 29.95 in 6.2 mi ENE 6.9 mph - N/A   Partly Cloudy
12:30 PM 78.8 °F 64.4 °F 61% 29.92 in 6.2 mi NE 10.4 mph - N/A   Partly Cloudy
1:00 PM 79 °F 65 °F 52% 29.93 in - ENE 9.2 mph - -  
1:00 PM 78.8 °F 64.4 °F 61% 29.92 in 6.2 mi ENE 9.2 mph - N/A   Partly Cloudy
1:30 PM 78.8 °F 64.4 °F 61% 29.89 in 6.2 mi NE 9.2 mph - N/A   Partly Cloudy
2:00 PM 78.8 °F 66.2 °F 65% 29.89 in 6.2 mi NE 10.4 mph - N/A   Partly Cloudy
2:30 PM 78.8 °F 62.6 °F 57% 29.89 in 6.2 mi NE 10.4 mph - N/A   Partly Cloudy
3:00 PM 79 °F 64 °F 50% 29.89 in 25 mi NE 9.2 mph - -   Partly Cloudy
3:00 PM 78.8 °F 64.4 °F 61% 29.89 in 6.2 mi NE 9.2 mph - N/A   Partly Cloudy
3:30 PM 78.8 °F 64.4 °F 61% 29.86 in 6.2 mi NE 8.1 mph - N/A   Partly Cloudy
4:00 PM 77 °F 65 °F 57% 29.88 in - NE 9.2 mph - -  
4:00 PM 77.0 °F 64.4 °F 65% 29.86 in 6.2 mi NE 9.2 mph - N/A   Partly Cloudy
4:30 PM 77.0 °F 66.2 °F 69% 29.89 in 6.2 mi NE 9.2 mph - N/A   Partly Cloudy
5:00 PM 77.0 °F 62.6 °F 61% 29.89 in 6.2 mi ENE 9.2 mph - N/A   Scattered Clouds
5:30 PM 75.2 °F 62.6 °F 65% 29.89 in 6.2 mi East 9.2 mph - N/A   Scattered Clouds
6:00 PM 74 °F 63 °F 61% 29.91 in - East 9.2 mph - -  
6:00 PM 75.2 °F 62.6 °F 65% 29.89 in 6.2 mi East 9.2 mph - N/A   Scattered Clouds
6:30 PM 75.2 °F 62.6 °F 65% 29.92 in 6.2 mi ESE 10.4 mph - N/A   Scattered Clouds
7:00 PM 73 °F 63 °F 64% 29.94 in - South 5.8 mph - -  
7:00 PM 73.4 °F 62.6 °F 69% 29.92 in 6.2 mi South 5.8 mph - N/A   Mostly Cloudy
7:30 PM 71.6 °F 64.4 °F 78% 29.92 in 6.2 mi South 5.8 mph - N/A   Scattered Clouds
8:00 PM 71.6 °F 64.4 °F 78% 29.95 in 6.2 mi South 6.9 mph - N/A   Scattered Clouds
8:30 PM 71.6 °F 64.4 °F 78% 29.95 in 6.2 mi South 6.9 mph - N/A   Scattered Clouds
9:00 PM 71 °F 64 °F 74% 29.96 in - South 6.9 mph - -  
9:00 PM 71.6 °F 64.4 °F 78% 29.95 in - South 6.9 mph - N/A   Clear
9:30 PM 71.6 °F 64.4 °F 78% 29.95 in - South 6.9 mph - N/A   Clear
10:00 PM 71 °F 65 °F 76% 29.98 in - South 8.1 mph - -  
10:00 PM 71.6 °F 64.4 °F 78% 29.98 in - South 8.1 mph - N/A   Clear
10:30 PM 69.8 °F 64.4 °F 83% 29.95 in - SSE 6.9 mph - N/A   Clear
11:00 PM 69.8 °F 64.4 °F 83% 29.95 in - South 6.9 mph - N/A   Clear
11:30 PM 69.8 °F 64.4 °F 83% 29.95 in - NNE 1.2 mph - N/A   Clear